AIB174 EGKK-LPPR

Flight info

Callsign AIB174
Flight time 1h 10m
Altitude 35000
Route NOVMA1X NOVMA L620 SAM M195 LORKU DCT EBOMO DCT COQUE DCT KORUL DCT ELTEP/N0417F230 T328 ASPOR ASPOR6A
Aircraft A320/M-SDE3FGHIRWY/LB1

Departure

Time 2026-04-17 12:00
Airport London Gatwick Airport (EGKK)

Arrival

Time 2026-04-17 13:11
Airport Francisco de Sá Carneiro Airport (LPPR)
Time Latitude Longitude Altitude Speed Heading
2026-04-17 10:52 51.15370 -0.18918 205 ft 0 kts 257°
2026-04-17 11:42 51.15373 -0.18898 215 ft 2 kts 257°
2026-04-17 11:42 51.15377 -0.18871 213 ft 2 kts 260°
2026-04-17 11:42 51.15384 -0.18848 212 ft 2 kts 222°
2026-04-17 11:42 51.15397 -0.18833 214 ft 2 kts 203°
2026-04-17 11:43 51.15413 -0.18822 212 ft 2 kts 215°
2026-04-17 11:43 51.15426 -0.18805 215 ft 2 kts 224°
2026-04-17 11:43 51.15440 -0.18789 211 ft 2 kts 171°
2026-04-17 11:43 51.15449 -0.18792 213 ft 0 kts 165°
2026-04-17 11:49 51.15448 -0.18792 213 ft 0 kts 165°
2026-04-17 11:50 51.15438 -0.18788 212 ft 1 kts 165°
2026-04-17 11:50 51.15435 -0.18786 213 ft 0 kts 165°
2026-04-17 11:50 51.15421 -0.18781 212 ft 4 kts 166°
2026-04-17 11:50 51.15395 -0.18772 211 ft 4 kts 168°
2026-04-17 11:51 51.15363 -0.18761 205 ft 5 kts 168°
2026-04-17 11:51 51.15330 -0.18749 210 ft 5 kts 168°
2026-04-17 11:51 51.15291 -0.18736 205 ft 6 kts 167°
2026-04-17 11:51 51.15242 -0.18718 211 ft 8 kts 167°
2026-04-17 11:52 51.15183 -0.18696 207 ft 9 kts 165°
2026-04-17 11:52 51.15146 -0.18616 208 ft 9 kts 94°
2026-04-17 11:52 51.15157 -0.18527 205 ft 7 kts 79°
2026-04-17 11:52 51.15166 -0.18455 209 ft 6 kts 78°
2026-04-17 11:53 51.15173 -0.18398 216 ft 5 kts 78°
2026-04-17 11:53 51.15178 -0.18357 209 ft 3 kts 78°
2026-04-17 11:53 51.15181 -0.18332 208 ft 1 kts 79°
2026-04-17 11:53 51.15185 -0.18288 209 ft 8 kts 85°
2026-04-17 11:54 51.15187 -0.18194 215 ft 8 kts 77°
2026-04-17 11:54 51.15206 -0.18128 213 ft 6 kts 65°
2026-04-17 11:54 51.15216 -0.18072 206 ft 6 kts 76°
2026-04-17 11:54 51.15229 -0.17970 215 ft 12 kts 79°
2026-04-17 11:55 51.15246 -0.17854 212 ft 10 kts 76°
2026-04-17 11:55 51.15259 -0.17759 216 ft 8 kts 78°
2026-04-17 11:55 51.15270 -0.17676 206 ft 7 kts 78°
2026-04-17 11:55 51.15280 -0.17600 206 ft 7 kts 78°
2026-04-17 11:56 51.15290 -0.17531 212 ft 6 kts 77°
2026-04-17 11:56 51.15297 -0.17469 205 ft 5 kts 83°
2026-04-17 11:56 51.15303 -0.17412 215 ft 5 kts 84°
2026-04-17 11:56 51.15291 -0.17368 204 ft 5 kts 130°
2026-04-17 11:57 51.15255 -0.17323 208 ft 8 kts 136°
2026-04-17 11:57 51.15246 -0.17243 213 ft 7 kts 80°
2026-04-17 11:57 51.15257 -0.17168 206 ft 6 kts 83°
2026-04-17 11:57 51.15264 -0.17102 210 ft 6 kts 79°
2026-04-17 11:58 51.15272 -0.17044 204 ft 5 kts 78°
2026-04-17 11:58 51.15279 -0.16996 207 ft 4 kts 77°
2026-04-17 11:58 51.15285 -0.16952 202 ft 5 kts 78°
2026-04-17 11:58 51.15291 -0.16903 206 ft 4 kts 79°
2026-04-17 11:59 51.15290 -0.16853 202 ft 7 kts 97°
2026-04-17 11:59 51.15234 -0.16808 209 ft 12 kts 169°
2026-04-17 11:59 51.15152 -0.16786 199 ft 7 kts 176°
2026-04-17 11:59 51.15113 -0.16884 211 ft 21 kts 256°
2026-04-17 12:00 51.15033 -0.17400 203 ft 81 kts 260°
2026-04-17 12:00 51.14871 -0.18597 205 ft 137 kts 257°
2026-04-17 12:00 51.14616 -0.20274 449 ft 160 kts 253°
2026-04-17 12:00 51.14373 -0.21987 1229 ft 158 kts 254°
2026-04-17 12:01 51.14145 -0.23690 1984 ft 157 kts 254°
2026-04-17 12:01 51.13919 -0.25381 2640 ft 156 kts 252°
2026-04-17 12:01 51.13691 -0.27062 3244 ft 155 kts 253°
2026-04-17 12:01 51.13451 -0.28811 3591 ft 172 kts 253°
2026-04-17 12:02 51.13176 -0.30787 3815 ft 195 kts 254°
2026-04-17 12:02 51.12863 -0.33031 4121 ft 219 kts 255°
2026-04-17 12:02 51.12516 -0.35526 4564 ft 240 kts 255°
2026-04-17 12:02 51.12153 -0.38150 5375 ft 246 kts 256°
2026-04-17 12:03 51.11781 -0.40836 6196 ft 251 kts 256°
2026-04-17 12:03 51.11302 -0.43523 6988 ft 255 kts 245°
2026-04-17 12:03 51.10516 -0.46070 7784 ft 258 kts 243°
2026-04-17 12:03 51.09719 -0.48630 8597 ft 260 kts 244°
2026-04-17 12:04 51.08913 -0.51214 9423 ft 262 kts 243°
2026-04-17 12:04 51.08109 -0.53786 10245 ft 264 kts 243°
2026-04-17 12:04 51.07290 -0.56403 10965 ft 266 kts 243°
2026-04-17 12:04 51.06465 -0.59054 11695 ft 268 kts 243°
2026-04-17 12:05 51.05641 -0.61733 12427 ft 271 kts 246°
2026-04-17 12:05 51.05098 -0.64621 13157 ft 275 kts 256°
2026-04-17 12:05 51.04704 -0.67613 13868 ft 279 kts 256°
2026-04-17 12:05 51.04302 -0.70638 14116 ft 280 kts 256°
2026-04-17 12:06 51.03896 -0.73663 14176 ft 279 kts 256°
2026-04-17 12:06 51.03488 -0.76694 14177 ft 286 kts 256°
2026-04-17 12:06 51.03049 -0.79930 14184 ft 313 kts 256°
2026-04-17 12:06 51.02569 -0.83436 14181 ft 337 kts 256°
2026-04-17 12:07 51.02055 -0.87163 14284 ft 355 kts 256°
2026-04-17 12:07 51.01518 -0.91085 14409 ft 371 kts 256°
2026-04-17 12:07 51.00964 -0.95160 14589 ft 383 kts 256°
2026-04-17 12:07 51.00400 -0.99325 15011 ft 387 kts 256°
2026-04-17 12:08 50.99833 -1.03520 15484 ft 390 kts 256°
2026-04-17 12:08 50.99257 -1.07737 15961 ft 392 kts 256°
2026-04-17 12:08 50.98679 -1.11920 16424 ft 394 kts 256°
2026-04-17 12:08 50.98086 -1.16182 16886 ft 397 kts 255°
2026-04-17 12:09 50.97487 -1.20467 17352 ft 399 kts 255°
2026-04-17 12:09 50.96888 -1.24766 17817 ft 401 kts 255°
2026-04-17 12:09 50.96084 -1.29001 18246 ft 401 kts 246°
2026-04-17 12:09 50.94790 -1.32925 18648 ft 402 kts 236°
2026-04-17 12:10 50.93041 -1.36396 19021 ft 404 kts 226°
2026-04-17 12:10 50.90903 -1.39303 19389 ft 408 kts 217°
2026-04-17 12:10 50.88532 -1.41786 19789 ft 409 kts 215°
2026-04-17 12:10 50.86153 -1.44257 20172 ft 409 kts 215°
2026-04-17 12:11 50.83765 -1.46738 20514 ft 412 kts 215°
2026-04-17 12:11 50.81368 -1.49227 20850 ft 413 kts 215°
2026-04-17 12:11 50.79778 -1.50877 21075 ft 414 kts 215°
2026-04-17 12:12 50.74938 -1.55893 21753 ft 418 kts 215°
2026-04-17 12:12 50.72503 -1.58412 22070 ft 419 kts 215°
2026-04-17 12:12 50.70059 -1.60937 22373 ft 421 kts 215°
2026-04-17 12:12 50.66805 -1.64296 22779 ft 423 kts 215°
2026-04-17 12:13 50.65143 -1.66007 22985 ft 424 kts 215°
2026-04-17 12:13 50.62669 -1.68549 23239 ft 426 kts 215°
2026-04-17 12:13 50.60180 -1.71099 23497 ft 428 kts 215°
2026-04-17 12:13 50.57679 -1.73661 23777 ft 430 kts 215°
2026-04-17 12:14 50.55177 -1.76221 24061 ft 430 kts 215°
2026-04-17 12:14 50.52674 -1.78779 24409 ft 428 kts 214°
2026-04-17 12:14 50.50181 -1.81326 24779 ft 427 kts 214°
2026-04-17 12:14 50.47697 -1.83861 25133 ft 425 kts 214°
2026-04-17 12:15 50.45219 -1.86381 25526 ft 423 kts 214°
2026-04-17 12:15 50.42791 -1.88850 25956 ft 420 kts 214°
2026-04-17 12:15 50.40344 -1.91334 26338 ft 418 kts 214°
2026-04-17 12:15 50.37902 -1.93813 26664 ft 418 kts 214°
2026-04-17 12:16 50.35462 -1.96290 27001 ft 418 kts 214°
2026-04-17 12:16 50.33024 -1.98758 27365 ft 417 kts 214°
2026-04-17 12:16 50.30592 -2.01213 27745 ft 415 kts 214°
2026-04-17 12:16 50.28166 -2.03656 28127 ft 414 kts 214°
2026-04-17 12:17 50.25748 -2.06090 28519 ft 413 kts 214°
2026-04-17 12:17 50.23341 -2.08510 28903 ft 412 kts 214°
2026-04-17 12:17 50.20926 -2.10899 29295 ft 410 kts 213°
2026-04-17 12:17 50.18508 -2.13256 29686 ft 409 kts 213°
2026-04-17 12:18 50.16091 -2.15593 30023 ft 409 kts 213°
2026-04-17 12:18 50.13671 -2.17927 30331 ft 409 kts 213°
2026-04-17 12:18 50.11255 -2.20261 30637 ft 408 kts 213°
2026-04-17 12:18 50.08878 -2.22565 30944 ft 407 kts 213°
2026-04-17 12:19 50.06472 -2.24896 31157 ft 407 kts 213°
2026-04-17 12:19 50.01613 -2.29595 31217 ft 413 kts 213°
2026-04-17 12:20 49.96728 -2.34310 31201 ft 413 kts 213°
2026-04-17 12:20 49.91835 -2.39023 31208 ft 415 kts 213°
2026-04-17 12:21 49.86926 -2.43747 31212 ft 416 kts 213°
2026-04-17 12:21 49.82006 -2.48473 31214 ft 416 kts 213°
2026-04-17 12:22 49.77084 -2.53186 31212 ft 416 kts 213°
2026-04-17 12:22 49.72194 -2.57861 31211 ft 416 kts 213°
2026-04-17 12:23 49.67270 -2.62559 31187 ft 417 kts 213°
2026-04-17 12:23 49.62327 -2.67252 31195 ft 417 kts 213°
2026-04-17 12:24 49.57379 -2.71948 31222 ft 418 kts 213°
2026-04-17 12:24 49.52465 -2.76592 31224 ft 417 kts 213°
2026-04-17 12:25 49.47474 -2.81293 31205 ft 417 kts 213°
2026-04-17 12:25 49.42519 -2.85967 31187 ft 418 kts 213°
2026-04-17 12:26 49.27036 -3.00485 31199 ft 419 kts 213°
2026-04-17 12:26 49.07049 -3.19050 31214 ft 420 kts 213°
2026-04-17 12:27 48.87017 -3.37493 31189 ft 421 kts 213°
2026-04-17 12:27 48.67057 -3.55672 31215 ft 420 kts 213°
2026-04-17 12:28 48.53707 -3.67753 31170 ft 419 kts 213°
2026-04-17 12:28 48.33604 -3.85790 31161 ft 421 kts 213°
2026-04-17 12:29 48.13451 -4.03717 31198 ft 421 kts 213°
2026-04-17 12:29 47.93260 -4.21510 31188 ft 422 kts 213°
2026-04-17 12:30 47.73134 -4.39507 31214 ft 421 kts 214°
2026-04-17 12:30 47.53222 -4.57923 31215 ft 422 kts 214°
2026-04-17 12:31 47.33229 -4.76175 31212 ft 423 kts 214°
2026-04-17 12:31 47.13129 -4.94369 31215 ft 424 kts 214°
2026-04-17 12:32 46.93177 -5.12314 31229 ft 423 kts 214°
2026-04-17 12:32 46.73098 -5.30219 31250 ft 422 kts 214°
2026-04-17 12:33 46.53066 -5.47948 31229 ft 421 kts 214°
2026-04-17 12:33 46.33003 -5.65528 31243 ft 421 kts 214°
2026-04-17 12:34 46.12968 -5.82946 31234 ft 420 kts 214°
2026-04-17 12:34 45.92938 -6.00210 31233 ft 419 kts 214°
2026-04-17 12:35 45.72901 -6.17321 31218 ft 419 kts 213°
2026-04-17 12:35 45.52847 -6.34316 31222 ft 419 kts 213°
2026-04-17 12:37 44.71108 -6.96939 31222 ft 424 kts 200°
2026-04-17 12:38 44.48405 -7.06080 31222 ft 424 kts 200°
2026-04-17 12:38 44.25736 -7.15123 31215 ft 424 kts 199°
2026-04-17 12:39 44.03009 -7.24082 31226 ft 425 kts 199°
2026-04-17 12:39 43.80261 -7.33009 31208 ft 425 kts 199°
2026-04-17 12:40 43.57608 -7.41806 31183 ft 426 kts 199°
2026-04-17 12:40 43.34754 -7.50635 31172 ft 428 kts 199°
2026-04-17 12:41 43.11775 -7.59413 31152 ft 429 kts 198°
2026-04-17 12:41 43.03589 -7.62533 31168 ft 429 kts 198°
2026-04-17 12:42 42.97832 -7.64719 31168 ft 429 kts 198°
2026-04-17 12:42 42.92075 -7.66893 31160 ft 429 kts 198°
2026-04-17 12:43 42.86315 -7.69065 31157 ft 429 kts 198°
2026-04-17 12:43 42.80563 -7.71243 31158 ft 429 kts 198°
2026-04-17 12:44 42.74805 -7.73420 31138 ft 430 kts 198°
2026-04-17 12:44 42.69077 -7.75565 31146 ft 430 kts 198°
2026-04-17 12:45 42.63309 -7.77725 31155 ft 430 kts 198°
2026-04-17 12:45 42.57540 -7.79890 31156 ft 430 kts 198°
2026-04-17 12:46 42.51771 -7.82062 31152 ft 430 kts 198°
2026-04-17 12:46 42.46007 -7.84228 31152 ft 430 kts 198°
2026-04-17 12:47 42.40233 -7.86387 31152 ft 430 kts 198°
2026-04-17 12:47 42.34459 -7.88543 31143 ft 430 kts 198°
2026-04-17 12:48 42.28721 -7.90675 31142 ft 431 kts 198°
2026-04-17 12:48 42.22949 -7.92819 31149 ft 431 kts 198°
2026-04-17 12:49 42.17168 -7.94971 31148 ft 431 kts 198°
2026-04-17 12:49 42.11383 -7.97120 31142 ft 431 kts 198°
2026-04-17 12:50 42.05597 -7.99251 31137 ft 431 kts 198°
2026-04-17 12:50 41.99817 -8.01381 31140 ft 431 kts 198°
2026-04-17 12:51 41.94029 -8.03513 31143 ft 431 kts 198°
2026-04-17 12:51 41.88244 -8.05649 31125 ft 431 kts 199°
2026-04-17 12:52 41.82966 -8.09145 31128 ft 426 kts 218°
2026-04-17 12:52 41.78948 -8.14900 31128 ft 425 kts 237°
2026-04-17 12:53 41.76151 -8.21879 31164 ft 424 kts 241°
2026-04-17 12:53 41.73427 -8.28854 31180 ft 422 kts 241°
2026-04-17 12:54 41.70706 -8.35789 31195 ft 420 kts 241°
2026-04-17 12:54 41.67989 -8.42690 31188 ft 418 kts 241°
2026-04-17 12:55 41.65281 -8.49569 31172 ft 418 kts 241°
2026-04-17 12:55 41.62598 -8.56386 31168 ft 401 kts 241°
2026-04-17 12:55 41.61326 -8.59609 31159 ft 384 kts 241°
2026-04-17 12:56 41.60091 -8.62726 30518 ft 382 kts 240°
2026-04-17 12:56 41.58835 -8.65891 29003 ft 390 kts 240°
2026-04-17 12:56 41.57558 -8.69106 27728 ft 392 kts 240°
2026-04-17 12:56 41.56292 -8.72290 26268 ft 397 kts 240°
2026-04-17 12:57 41.54995 -8.75540 25216 ft 394 kts 240°
2026-04-17 12:57 41.53711 -8.78755 24221 ft 390 kts 240°
2026-04-17 12:57 41.52316 -8.81817 23176 ft 383 kts 230°
2026-04-17 12:57 41.50428 -8.84265 22143 ft 376 kts 216°
2026-04-17 12:58 41.48149 -8.85918 21167 ft 372 kts 201°
2026-04-17 12:58 41.45644 -8.86711 19998 ft 374 kts 188°
2026-04-17 12:58 41.43010 -8.86564 18685 ft 385 kts 172°
2026-04-17 12:58 41.40381 -8.85837 17404 ft 386 kts 171°
2026-04-17 12:59 41.37762 -8.85114 16269 ft 383 kts 171°
2026-04-17 12:59 41.35164 -8.84410 15199 ft 379 kts 172°
2026-04-17 12:59 41.32587 -8.83722 14182 ft 376 kts 172°
2026-04-17 12:59 41.30031 -8.83044 13102 ft 372 kts 171°
2026-04-17 13:00 41.27512 -8.82376 12070 ft 367 kts 171°
2026-04-17 13:00 41.25030 -8.81716 11289 ft 356 kts 171°
2026-04-17 13:00 41.22699 -8.81088 11159 ft 328 kts 171°
2026-04-17 13:00 41.20546 -8.80507 11027 ft 304 kts 171°
2026-04-17 13:01 41.18564 -8.79977 10776 ft 287 kts 171°
2026-04-17 13:01 41.16625 -8.79461 10262 ft 282 kts 171°
2026-04-17 13:01 41.14706 -8.78954 9772 ft 281 kts 171°
2026-04-17 13:01 41.12797 -8.78454 9426 ft 278 kts 171°
2026-04-17 13:02 41.10902 -8.77960 9061 ft 277 kts 171°
2026-04-17 13:02 41.09020 -8.77467 8687 ft 275 kts 171°
2026-04-17 13:02 41.07152 -8.76976 8312 ft 273 kts 171°
2026-04-17 13:02 41.05298 -8.76485 8125 ft 272 kts 171°
2026-04-17 13:03 41.03445 -8.75993 8000 ft 269 kts 171°
2026-04-17 13:03 41.01653 -8.75511 7874 ft 257 kts 171°
2026-04-17 13:03 40.99941 -8.75049 7745 ft 245 kts 171°
2026-04-17 13:03 40.98379 -8.74279 7625 ft 238 kts 147°
2026-04-17 13:04 40.97299 -8.72653 7311 ft 242 kts 118°
2026-04-17 13:04 40.97003 -8.70455 6865 ft 249 kts 85°
2026-04-17 13:04 40.97330 -8.68227 6445 ft 249 kts 81°
2026-04-17 13:04 40.97678 -8.65989 5882 ft 248 kts 81°
2026-04-17 13:05 40.98210 -8.63833 5362 ft 248 kts 58°
2026-04-17 13:05 40.99466 -8.62318 4892 ft 247 kts 25°
2026-04-17 13:05 41.01075 -8.61937 4695 ft 228 kts 354°
2026-04-17 13:05 41.02621 -8.62272 4159 ft 224 kts 348°
2026-04-17 13:06 41.04140 -8.62677 3653 ft 222 kts 347°
2026-04-17 13:06 41.05656 -8.63092 3230 ft 222 kts 347°
2026-04-17 13:06 41.07132 -8.63494 3073 ft 212 kts 348°
2026-04-17 13:06 41.08575 -8.63878 2991 ft 209 kts 348°
2026-04-17 13:07 41.09688 -8.64172 3012 ft 195 kts 348°
2026-04-17 13:07 41.10954 -8.64506 2752 ft 189 kts 348°
2026-04-17 13:07 41.12225 -8.64838 2459 ft 183 kts 348°
2026-04-17 13:07 41.13448 -8.65159 2233 ft 173 kts 348°
2026-04-17 13:08 41.14573 -8.65451 2005 ft 157 kts 348°
2026-04-17 13:08 41.15605 -8.65718 1784 ft 146 kts 347°
2026-04-17 13:08 41.16582 -8.65972 1603 ft 142 kts 346°
2026-04-17 13:08 41.17526 -8.66219 1415 ft 138 kts 346°
2026-04-17 13:09 41.18461 -8.66464 1233 ft 135 kts 344°
2026-04-17 13:09 41.19390 -8.66710 1056 ft 137 kts 345°
2026-04-17 13:09 41.20321 -8.66953 875 ft 136 kts 346°
2026-04-17 13:09 41.21252 -8.67194 687 ft 137 kts 344°
2026-04-17 13:10 41.22189 -8.67438 518 ft 138 kts 346°
2026-04-17 13:10 41.23128 -8.67680 357 ft 137 kts 344°
2026-04-17 13:10 41.24039 -8.67925 251 ft 125 kts 347°
2026-04-17 13:10 41.24740 -8.68108 238 ft 78 kts 348°
2026-04-17 13:11 41.25057 -8.68171 221 ft 29 kts
2026-04-17 13:11 41.25242 -8.68119 218 ft 11 kts 18°
2026-04-17 13:11 41.25288 -8.68064 213 ft 10 kts 80°
2026-04-17 13:11 41.25243 -8.68009 213 ft 9 kts 167°
2026-04-17 13:12 41.25194 -8.67997 214 ft 6 kts 169°
2026-04-17 13:12 41.25168 -8.67990 215 ft 0 kts 169°
2026-04-17 13:12 41.25154 -8.67987 220 ft 3 kts 168°
2026-04-17 13:13 41.25123 -8.67978 218 ft 5 kts 168°
2026-04-17 13:13 41.25083 -8.67967 221 ft 7 kts 168°
2026-04-17 13:13 41.25033 -8.67953 224 ft 8 kts 168°
2026-04-17 13:13 41.24966 -8.67935 226 ft 11 kts 168°
2026-04-17 13:14 41.24908 -8.67919 228 ft 14 kts 166°
2026-04-17 13:14 41.24819 -8.67866 231 ft 12 kts 151°
2026-04-17 13:14 41.24739 -8.67822 235 ft 7 kts 163°
2026-04-17 13:14 41.24706 -8.67813 238 ft 4 kts 168°
2026-04-17 13:15 41.24666 -8.67802 237 ft 9 kts 168°
2026-04-17 13:15 41.24595 -8.67783 239 ft 10 kts 168°
2026-04-17 13:15 41.24540 -8.67768 241 ft 6 kts 168°
2026-04-17 13:15 41.24512 -8.67761 242 ft 2 kts 168°
2026-04-17 13:16 41.24501 -8.67758 242 ft 4 kts 169°
2026-04-17 13:16 41.24443 -8.67744 244 ft 13 kts 169°
2026-04-17 13:16 41.24339 -8.67718 244 ft 12 kts 167°
2026-04-17 13:16 41.24273 -8.67653 245 ft 12 kts 126°
2026-04-17 13:17 41.24221 -8.67583 247 ft 9 kts 153°
2026-04-17 13:17 41.24170 -8.67568 248 ft 6 kts 169°
2026-04-17 13:17 41.24147 -8.67560 249 ft 0 kts 167°
2026-04-17 13:17 41.24137 -8.67558 249 ft 4 kts 168°
2026-04-17 13:18 41.24091 -8.67545 250 ft 8 kts 168°
2026-04-17 13:18 41.24041 -8.67532 251 ft 6 kts 169°
2026-04-17 13:18 41.23982 -8.67518 254 ft 12 kts 169°
2026-04-17 13:18 41.23883 -8.67492 257 ft 18 kts 168°
2026-04-17 13:19 41.23747 -8.67456 258 ft 21 kts 168°
2026-04-17 13:19 41.23602 -8.67417 261 ft 21 kts 170°
2026-04-17 13:19 41.23460 -8.67380 262 ft 19 kts 166°
2026-04-17 13:19 41.23408 -8.67363 262 ft 5 kts 159°
2026-04-17 13:20 41.23384 -8.67333 262 ft 5 kts 122°
2026-04-17 13:20 41.23372 -8.67285 261 ft 6 kts 94°
2026-04-17 13:20 41.23387 -8.67241 260 ft 0 kts 51°
2026-04-17 13:20 41.23393 -8.67230 260 ft 3 kts 52°
2026-04-17 13:21 41.23403 -8.67215 259 ft 0 kts 51°